Location: Birkenwerder
(52.6919°N, 13.2774°E)
Time: 23:52:00
(UTC+00:00)

Cosmos 1570 Rocket - Pass Details

Date: 03 October 2020
Orbit: 763 x 788 km, 74.1° (Epoch: 24 October)

Event Time Altitude Azimuth Distance (km) Brightness Sun altitude
Exits shadow 01:10:06 33° 80° (E) 1,315 5.5 -34.1°
Drops below altitude 10° 01:13:56 10° 39° (NE) 2,363 7.3 -33.7°
Sets 01:16:30 0° 31° (NNE) 3,296 8.3 -33.4°
